Probability
0 0 0 0 0 0 0 0 0 0 0 0 0 0 0 0 0 0 0 0 0 0 0 0 0 0 0 0 0 0 0 0 0 0 0 0 0 0 0 0 0 0 0 0
0 0 0 0 0 0 0 0 0 0 0 0 0 0 0 0 0 0 0 0 0 0 0 0 0 0 0 0 0 0 0 0 0 0 0 0 0 0 0 0 0 0 0 0
0 0 0 0 0 0 0 0 0 0 0 0 0 0 0 0 0 0 0 0 0 0 0 0 0 0 0 0 0 0 0 0 0 0 0 0 0 0 0 0 0 0 0 0
0 0 0 0 0 0 0 0 0 0 0 0 0 0 0 0 0 0 0 0 0 0 0 0 0 0 0 0 0 0 0 0 0 0 0 0 0 0 0 0 0 0 0 0
0 0 0 0 0 0 0 0 0 0 0 0 0 0 0 0 0 0 0 0 0 0 0 0 0 0 0 0 0 0 0 0 0 0 0 0 0 0 0 0 0 0 0 0
0 0 0 0 0 0 0 0 0 0 0 0 0 0 0 0 0 0 0 0 0 0 0 0 0 0 0 0 0 0 0 0 0 0 0 0 0 0 0 0 0 0 0 0
0 0 0 0 0 0 0 0 0 0 0 0 0 0 0 0 0 0 0 0 0 0 0 0 0 0 0 0 0 0 0 0 0 0 0 0 0 0 0 0 0 0 0 0
0 0 0 0 0 0 0 0 0 0 0 0 0 0 0 0 0 0 0 0 0 0 0 0 0 0 0 0 0 0 0 0 0 0 0 0 0 0 0 0 0 0 0 0
0 0 0 0 0 0 0 0 0 0 0 0 0 0 0 0 0 0 0 0 0 0 0 0 0 0 0 0 0 0 0 0 0 0 0 0 0 0 0 0 0 0 0 0
0 0 0 0 0 0 0 0 0 0 0 0 0 0 0 0 0 0 0 0 0 0 0 0 0 0 0 0 0 0 0 0 0 0 0 0 0 0 0 0 0 0 0 0
0 0 0 0 0 0 0 0 0 0 0 0 0 0 0 0 0 0 0 0 0 0 0 0 0 0 0 0 0 0 0 0 0 0 0 0 0 0 0 0 0 0 0 0
0 0 0 0 0 0 0 0 0 0 0 0 0 0 0 0 0 0 0 0 0 0 0 0 0 0 0 0 0 0 0 0 0 0 0 0 0 0 0 0 0 0 0 0
0 0 0 0 0 0 0 0 0 0 0 0 0 0 0 0 0 0 0 0 0 0 0 0 0 0 0 0 0 0 0 0 0 0 0 0 0 0 0 0 0 0 0 0
0 0 0 0 0 0 0 0 0 0 0 0 0 0 0 0 0 0 0 0 0 0 0 0 0 0 0 0 0 0 0 0 0 0 0 0 0 0 0 0 0 0 0 0
0 0 0 0 0 0 0 0 0 0 0 0 0 0 0 0 0 0 0 0 0 0 0 0 0 0 0 0 0 0 0 0 0 0 0 0 0 0 0 0 0 0 0 0
0 0 0 0 0 0 0 0 0 0 0 0 0 0 0 0 0 0 0 0 0 0 0 0 0 0 0 0 0 0 0 0 0 0 0 0 0 0 0 0 0 0 0 0
0 0 0 0 0 0 0 0 0 0 0 0 0 0 0 0 0 0 0 0 0 0 0 0 0 0 0 0 0 0 0 0 0 0 0 0 0 0 0 0 0 0 0 0
0 0 0 0 0 0 0 0 0 0 0 0 0 0 0 0 0 0 0 0 0 0 0 0 0 0 0 0 0 0 0 0 0 0 0 0 0 0 0 0 0 0 0 0
0 0 0 0 0 0 0 0 0 0 0 0 0 0 0 0 0 0 0 0 0 0 0 0 0 0 0 0 0 0 0 0 0 0 0 0 0 0 0 0 0 0 0 0
0 0 0 0 0 0 0 0 0 0 0 0 0 0 0 0 0 0 0 0 0 0 0 0 0 0 0 0 0 0 0 0 0 0 0 0 0 0 0 0 0 0 0 0
0 0 0 0 0 0 0 0 0 0 0 0 0 0 0 0 0 0 0 0 0 0 0 0 0 0 0 0 0 0 0 0 0 0 0 0 0 0 0 0 0 0 0 0
0 0 0 0 0 0 0 0 0 0 0 0 0 0 0 0 0 0 0 0 0 0 0 0 0 0 0 0 0 0 0 0 0 0 0 0 0 0 0 0 0 0 0 0
0 0 0 0 0 0 0 0 0 0 0 0 0 0 0 0 0 0 0 0 0 0 0 0 0 0 0 0 0 0 0 0 0 0 0 0 0 0 0 0 0 0 0 0
0 0 0 0 0 0 0 0 0 0 0 0 0 0 0 0 0 0 0 0 0 0 0 0 0 0 0 0 0 0 0 0 0 0 0 0 0 0 0 0 0 0 0 0
0 0 0 0 0 0 0 0 0 0 0 0 0 0 0 0 0 0 0 0 0 0 0 0 0 0 0 0 0 0 0 0 0 0 0 0 0 0 0 0 0 0 0 0
0 0 0 0 0 0 0 0 0 0 0 0 0 0 0 0 0 0 0 0 0 0 0 0 0 0 0 0 0 0 0 0 0 0 0 0 0 0 0 0 0 0 0 0
0 0 0 0 0 0 0 0 0 0 0 0 0 0 0 0 0 0 0 0 0 0 0 0 0 0 0 0 0 0 0 0 0 0 0 0 0 0 0 0 0 0 0 0
Height
5564 5562 5560 5558 5558 5556 5552 5549 5546 5545 5543 5543 5539 5535 5533 5531 5528 5527 5526 5524 5522 5521 5520 5520 5519 5519 5519 5520 5521 5522 5523 5524 5526 5528 5530 5532 5535 5538 5541 5544 5548 5551 5555 5560
5552 5551 5548 5547 5548 5545 5542 5539 5536 5533 5533 5533 5528 5525 5523 5521 5519 5517 5516 5514 5513 5511 5510 5510 5509 5509 5509 5510 5510 5511 5512 5514 5515 5517 5519 5521 5524 5527 5530 5533 5536 5540 5544 5548
5539 5539 5535 5536 5540 5535 5532 5529 5526 5522 5523 5521 5518 5516 5513 5511 5509 5507 5506 5504 5503 5502 5500 5499 5499 5499 5499 5499 5500 5500 5501 5503 5504 5506 5508 5510 5513 5516 5519 5522 5525 5529 5533 5537
5525 5526 5523 5530 5527 5524 5520 5519 5516 5512 5511 5509 5507 5505 5503 5501 5499 5497 5496 5494 5493 5491 5490 5489 5488 5488 5488 5489 5489 5490 5491 5492 5493 5495 5497 5499 5502 5504 5507 5511 5514 5518 5522 5526
5513 5511 5511 5518 5516 5511 5508 5507 5506 5502 5500 5498 5496 5494 5494 5491 5488 5487 5485 5484 5482 5481 5480 5479 5478 5478 5478 5479 5479 5479 5480 5481 5482 5484 5485 5488 5490 5493 5496 5499 5503 5506 5511 5515
5502 5499 5499 5506 5504 5499 5496 5496 5496 5491 5489 5487 5485 5484 5484 5481 5478 5476 5475 5473 5472 5471 5470 5469 5468 5468 5468 5468 5468 5469 5469 5470 5471 5473 5474 5476 5479 5481 5484 5487 5491 5495 5500 5504
5492 5488 5488 5494 5490 5487 5486 5485 5482 5479 5478 5476 5474 5473 5472 5470 5468 5466 5464 5463 5461 5461 5460 5459 5458 5458 5458 5458 5458 5458 5459 5460 5461 5462 5463 5465 5467 5469 5472 5475 5479 5483 5489 5493
5481 5478 5482 5481 5478 5476 5474 5472 5469 5467 5466 5464 5463 5462 5461 5459 5457 5455 5453 5452 5451 5450 5450 5449 5449 5448 5448 5448 5447 5447 5448 5449 5450 5451 5452 5453 5456 5458 5460 5464 5468 5472 5477 5482
5470 5471 5471 5468 5466 5463 5461 5460 5458 5456 5455 5453 5452 5451 5450 5448 5446 5444 5443 5442 5441 5440 5440 5439 5438 5437 5437 5437 5437 5436 5437 5438 5439 5440 5441 5443 5444 5447 5449 5452 5456 5460 5465 5470
5458 5459 5458 5456 5454 5452 5449 5447 5446 5444 5443 5442 5441 5440 5438 5437 5435 5434 5433 5432 5431 5430 5429 5429 5428 5427 5426 5426 5426 5426 5426 5427 5428 5429 5430 5432 5433 5435 5438 5441 5444 5448 5453 5458
5446 5447 5445 5445 5442 5440 5438 5436 5434 5433 5432 5430 5429 5428 5426 5425 5424 5423 5422 5421 5420 5420 5419 5419 5418 5417 5416 5416 5415 5416 5416 5416 5417 5418 5419 5421 5423 5424 5426 5429 5433 5437 5442 5447
5435 5435 5432 5433 5431 5429 5427 5425 5424 5423 5422 5420 5418 5417 5415 5414 5413 5412 5411 5411 5410 5410 5409 5408 5408 5407 5406 5405 5405 5405 5405 5406 5407 5408 5409 5411 5412 5414 5416 5419 5422 5426 5431 5435
5423 5422 5420 5420 5420 5418 5416 5415 5414 5412 5411 5410 5408 5406 5405 5404 5403 5402 5401 5400 5400 5399 5399 5398 5398 5397 5396 5395 5395 5395 5395 5396 5397 5398 5399 5400 5402 5404 5406 5409 5412 5415 5420 5424
5411 5410 5410 5410 5408 5407 5405 5404 5403 5402 5400 5399 5397 5396 5394 5393 5393 5392 5391 5390 5390 5390 5389 5388 5388 5387 5386 5385 5385 5385 5385 5385 5386 5388 5389 5390 5391 5393 5395 5398 5402 5406 5410 5414
5401 5399 5399 5398 5397 5396 5395 5393 5392 5391 5390 5389 5387 5386 5384 5384 5383 5382 5381 5380 5380 5380 5379 5379 5378 5378 5377 5376 5376 5376 5375 5375 5376 5377 5378 5380 5381 5383 5386 5388 5392 5395 5399 5404
5390 5389 5388 5387 5387 5386 5384 5383 5382 5381 5380 5378 5377 5376 5374 5374 5373 5372 5371 5370 5370 5370 5370 5369 5369 5369 5368 5367 5367 5366 5366 5366 5367 5368 5369 5370 5372 5374 5376 5379 5382 5386 5390 5394
5379 5379 5378 5377 5376 5375 5374 5372 5371 5371 5370 5368 5367 5366 5365 5364 5363 5363 5362 5361 5361 5361 5361 5360 5360 5360 5359 5358 5358 5357 5357 5357 5358 5359 5360 5362 5363 5365 5367 5370 5373 5376 5380 5384
5369 5369 5368 5367 5366 5365 5364 5362 5361 5360 5359 5358 5357 5356 5355 5355 5354 5353 5353 5352 5352 5352 5351 5351 5351 5351 5350 5349 5349 5348 5348 5348 5349 5350 5352 5353 5355 5357 5359 5362 5365 5368 5372 5375
5360 5359 5358 5357 5356 5354 5353 5352 5351 5350 5349 5348 5347 5346 5346 5345 5344 5344 5344 5343 5343 5343 5343 5342 5342 5342 5341 5340 5340 5339 5339 5340 5340 5342 5343 5345 5347 5349 5351 5354 5357 5360 5364 5367
5351 5350 5348 5347 5346 5345 5344 5342 5341 5340 5339 5337 5337 5336 5336 5335 5335 5335 5335 5334 5334 5334 5333 5333 5333 5333 5332 5332 5331 5330 5330 5331 5332 5334 5335 5337 5339 5341 5343 5346 5349 5352 5356 5359
5342 5341 5339 5338 5337 5335 5334 5332 5331 5330 5329 5328 5327 5327 5327 5326 5326 5326 5326 5326 5325 5325 5325 5325 5325 5325 5324 5323 5323 5323 5323 5323 5325 5326 5328 5330 5332 5334 5336 5339 5342 5345 5349 5352
5334 5332 5331 5329 5328 5326 5325 5323 5322 5321 5320 5319 5318 5318 5318 5317 5317 5317 5317 5317 5316 5316 5316 5316 5316 5316 5316 5316 5316 5316 5316 5317 5318 5319 5321 5323 5325 5327 5330 5332 5335 5339 5342 5346
5325 5324 5323 5321 5320 5318 5317 5315 5314 5312 5311 5311 5310 5310 5309 5309 5309 5309 5308 5308 5308 5308 5308 5308 5308 5308 5308 5308 5309 5309 5309 5310 5312 5313 5315 5317 5319 5321 5324 5326 5330 5333 5336 5340
5317 5316 5314 5313 5311 5310 5308 5307 5306 5304 5303 5302 5302 5302 5301 5301 5301 5300 5300 5300 5300 5300 5300 5301 5301 5301 5301 5302 5302 5303 5303 5304 5306 5307 5309 5311 5313 5316 5318 5321 5324 5328 5331 5334
5310 5308 5306 5305 5303 5301 5300 5299 5298 5297 5296 5295 5295 5294 5293 5293 5293 5293 5293 5293 5293 5293 5294 5294 5294 5294 5295 5295 5296 5297 5298 5299 5301 5302 5304 5306 5309 5311 5314 5317 5320 5323 5326 5329
5302 5301 5299 5297 5295 5293 5292 5291 5290 5289 5289 5288 5288 5287 5286 5286 5286 5286 5286 5286 5286 5286 5287 5287 5288 5288 5289 5290 5291 5292 5293 5294 5296 5298 5300 5302 5304 5307 5310 5312 5315 5318 5321 5324
5295 5294 5292 5290 5288 5286 5285 5284 5283 5282 5282 5281 5281 5280 5279 5279 5279 5279 5279 5279 5280 5280 5281 5281 5281 5282 5283 5284 5285 5287 5288 5290 5291 5293 5295 5298 5300 5303 5305 5308 5311 5313 5316 5319
Wind_Speed
44 44 44 44 43 42 43 43 45 43 42 39 40 41 40 40 39 39 38 37 37 37 37 36 37 37 38 39 40 40 41 43 43 43 42 41 41 42 43 44 45 47 49 50
45 44 44 45 42 42 43 44 44 44 42 39 40 40 40 39 39 38 38 38 38 37 37 37 37 38 38 39 39 39 40 41 42 43 43 43 42 43 43 44 44 46 47 48
46 45 46 45 42 42 43 43 44 45 43 41 40 39 38 38 38 38 39 38 38 37 37 38 38 38 38 38 39 39 39 40 42 43 43 44 43 44 44 44 44 45 45 47
47 46 48 45 42 43 43 43 43 44 42 41 40 39 38 38 39 39 39 38 38 37 38 38 38 38 38 38 38 38 39 40 40 41 43 45 45 44 44 44 45 45 46 46
46 47 48 43 42 42 43 43 42 42 41 41 40 40 39 39 39 38 38 38 37 37 37 37 37 37 38 38 37 37 37 39 39 40 41 42 43 44 44 44 45 46 46 46
46 47 48 43 41 42 44 44 41 41 41 41 41 40 39 39 38 38 38 37 36 36 36 36 37 37 37 37 37 37 37 37 38 39 40 40 41 42 42 43 44 46 48 47
45 47 47 42 42 42 44 43 42 42 41 40 40 40 39 39 38 38 38 37 37 36 35 35 35 35 36 36 37 37 37 37 38 38 39 40 40 41 42 42 43 45 47 47
44 46 45 42 43 43 43 43 43 42 41 40 40 40 40 39 39 38 37 37 36 36 35 35 35 35 36 36 37 38 38 38 38 38 38 39 39 40 42 43 44 44 45 46
45 44 43 42 42 42 43 43 42 41 41 41 40 40 40 40 40 39 38 37 36 36 35 34 35 36 36 35 36 37 38 38 38 38 38 38 38 39 41 42 43 44 44 45
44 42 41 41 41 42 42 42 41 41 41 40 40 40 40 41 40 39 37 37 36 35 35 34 34 35 36 35 35 36 37 38 38 38 37 37 38 39 40 41 42 43 43 43
43 41 41 40 41 41 42 42 40 39 39 39 39 39 39 39 38 37 36 36 36 35 34 34 34 35 36 36 36 36 36 36 36 36 36 36 37 38 40 40 41 42 42 41
41 39 41 40 39 40 40 39 38 38 38 38 39 38 38 37 36 35 34 34 34 35 34 34 35 35 36 35 35 35 36 35 35 35 35 35 36 37 38 39 40 41 41 41
40 39 40 39 39 39 39 37 37 38 37 37 37 37 36 35 34 33 33 33 33 33 33 33 34 34 34 34 33 33 34 35 35 35 35 35 36 36 37 38 39 40 40 41
40 40 40 39 39 38 37 37 37 36 36 36 35 35 35 34 33 33 33 33 33 33 32 32 32 31 31 31 30 31 32 33 33 34 34 34 34 34 35 36 36 37 39 39
39 39 38 38 37 36 35 35 36 35 35 35 35 35 34 33 32 32 32 32 32 31 31 31 30 30 30 29 29 29 29 30 31 31 32 33 33 32 33 34 35 36 37 38
37 37 37 36 35 34 35 35 35 34 34 34 34 34 33 33 32 31 31 30 30 30 30 29 29 29 29 29 29 28 28 29 29 29 29 30 30 31 31 32 33 34 35 35
35 35 35 35 35 35 35 35 35 34 33 34 33 33 32 32 31 30 29 28 28 29 29 28 28 28 28 29 29 28 28 29 29 29 28 28 28 28 29 31 31 31 32 34
34 33 33 33 34 35 35 35 35 34 34 33 33 32 32 31 30 28 28 27 27 27 28 29 28 28 28 28 28 28 28 28 28 28 28 28 27 27 28 28 29 28 30 31
31 31 31 32 32 33 33 34 33 33 33 33 33 32 31 30 29 28 28 28 27 27 28 28 28 28 27 27 27 26 26 26 27 27 26 26 26 26 27 27 27 27 29 31
29 30 30 31 31 32 32 32 32 32 31 31 31 30 29 28 28 28 28 27 27 27 27 27 27 27 26 26 26 25 25 24 24 25 25 24 25 25 26 26 26 26 27 28
28 28 28 29 30 30 30 31 31 30 29 29 28 28 27 27 27 27 27 27 26 26 26 26 26 26 25 25 24 24 23 23 22 23 23 23 23 23 24 25 25 25 26 27
26 26 27 27 27 27 27 28 28 28 27 26 26 27 26 26 26 26 26 26 26 25 25 24 24 24 24 23 23 22 22 22 21 21 21 22 22 22 22 23 23 24 25 26
25 26 26 26 26 27 27 26 26 26 26 26 26 26 26 25 25 25 24 24 24 24 23 23 23 23 22 22 21 21 21 20 20 20 20 20 21 21 21 21 22 23 24 24
25 25 25 26 26 26 26 26 25 25 24 24 24 24 24 24 24 24 23 23 23 22 22 21 21 21 20 20 20 19 18 18 18 18 18 19 19 19 19 19 21 21 22 22
24 24 24 25 25 25 25 25 24 24 23 22 22 22 22 22 22 22 22 21 21 21 21 20 20 19 19 18 18 17 17 17 17 17 17 18 18 18 18 18 19 20 20 21
23 23 23 24 24 23 23 23 23 23 22 22 22 22 21 21 20 20 20 20 20 20 19 19 19 19 18 17 17 17 17 17 17 17 17 17 17 17 17 17 18 19 19 19
22 22 22 23 23 22 21 21 21 21 21 21 21 20 20 20 19 19 19 19 19 19 19 18 18 17 17 17 16 16 17 16 16 16 17 16 15 16 16 17 17 17 18 18
Wind_Direction
282 282 281 282 283 283 283 285 287 290 290 291 287 286 285 283 283 282 280 280 278 276 275 272 268 264 263 262 260 258 256 254 253 253 252 251 251 250 249 248 247 246 246 244
280 281 280 280 282 283 283 284 285 287 287 288 286 286 285 284 283 282 280 279 279 276 274 272 269 267 265 263 261 259 257 256 255 254 252 252 251 249 249 248 248 247 246 245
279 279 279 280 283 282 282 283 284 285 286 286 286 285 284 283 282 281 282 280 278 277 274 272 269 268 265 263 263 261 259 256 254 253 252 251 251 249 248 248 248 247 246 244
278 278 277 284 283 281 282 284 284 284 285 285 285 284 284 284 282 282 282 280 278 277 274 271 269 268 266 265 264 262 260 257 255 253 252 251 251 251 250 248 246 246 245 243
276 277 279 282 283 283 283 284 285 285 284 283 283 283 283 283 283 282 281 281 278 275 274 272 270 269 268 266 264 262 260 259 257 256 254 253 252 252 250 248 246 245 244 242
276 278 280 285 284 283 283 284 285 283 283 282 281 281 282 282 282 282 281 280 277 275 273 272 271 269 268 267 265 264 262 261 260 259 257 255 254 253 251 249 247 245 243 243
276 278 281 285 285 285 285 286 285 283 282 281 280 281 281 282 282 282 281 279 276 274 273 271 270 269 269 268 266 265 263 263 262 260 259 256 255 255 253 251 249 246 244 244
277 278 283 284 284 284 285 285 285 284 282 280 280 280 280 282 282 281 280 278 276 273 272 271 270 269 269 269 267 265 264 263 262 261 260 257 255 254 252 250 247 245 244 245
277 280 281 282 283 284 284 285 284 282 280 280 280 280 279 280 280 280 279 277 276 275 273 273 272 272 269 270 269 266 265 264 263 262 260 258 256 255 252 249 246 244 243 244
277 279 280 280 281 282 283 283 282 281 281 282 282 281 280 280 279 279 278 277 276 276 275 274 273 273 270 269 269 268 267 265 264 262 260 257 255 254 251 249 246 243 242 243
278 279 278 278 279 280 280 281 281 280 280 281 282 281 281 280 279 278 276 275 275 275 275 275 275 274 272 270 269 268 267 265 264 262 259 258 256 255 252 249 247 244 241 241
277 277 277 277 278 279 280 280 279 279 280 280 281 281 281 280 279 278 276 275 274 275 275 275 275 275 273 271 269 267 265 264 262 260 259 258 257 255 253 250 247 244 242 242
276 275 276 278 280 281 281 279 278 279 280 281 280 281 281 279 278 276 276 275 274 275 275 275 276 276 275 273 271 268 267 264 262 260 259 259 258 256 253 249 246 243 242 242
274 275 276 278 279 280 279 278 278 279 280 281 280 280 281 280 278 276 275 274 274 274 274 275 276 276 275 274 272 271 269 266 263 260 259 259 258 256 253 248 244 241 240 240
273 275 277 278 278 278 278 277 277 278 279 278 279 280 280 279 278 277 275 275 273 273 274 274 275 275 275 275 274 273 270 267 265 261 259 257 256 255 252 248 243 239 237 238
274 274 275 277 278 277 277 278 278 277 277 277 278 278 278 277 277 276 276 274 273 273 273 273 273 274 275 275 275 273 272 270 266 262 259 257 255 253 250 247 243 239 238 237
274 274 275 276 276 277 278 278 278 277 277 277 277 276 276 276 276 276 276 275 273 272 271 272 274 275 276 276 275 273 271 269 265 261 258 257 255 251 248 245 242 240 237 237
275 276 277 277 277 277 277 278 277 277 277 276 275 275 275 275 275 274 274 274 274 272 270 271 273 275 275 276 275 273 270 267 263 260 258 256 253 249 247 244 240 237 236 236
277 277 278 278 279 278 278 279 278 278 277 276 274 275 274 273 273 273 273 274 274 274 272 272 273 274 275 276 275 272 269 265 262 259 257 255 252 249 247 244 240 238 237 236
279 280 279 279 279 279 280 279 279 278 277 276 274 274 273 272 272 273 273 273 273 273 272 272 272 273 275 276 275 272 269 264 259 255 253 252 249 247 245 243 240 238 235 233
281 281 280 279 280 280 280 280 280 279 278 276 274 272 272 271 271 272 273 272 272 272 271 270 270 272 274 274 273 270 267 262 258 254 251 249 247 245 243 241 238 236 234 231
281 281 281 282 282 281 281 281 281 280 277 275 273 272 272 271 271 271 272 272 271 270 269 269 270 271 271 270 269 268 264 259 255 252 249 246 245 244 241 237 234 232 230 229
281 281 281 282 282 281 281 281 281 280 277 275 274 273 272 271 271 272 271 271 270 268 268 268 269 269 269 268 266 265 261 257 252 249 246 245 243 239 236 233 231 229 228 229
283 283 283 284 284 282 281 280 280 280 278 275 274 274 272 272 272 271 270 268 267 267 267 268 268 267 267 266 263 260 257 254 250 246 243 242 238 233 231 229 228 226 226 226
286 286 287 288 287 284 281 279 278 278 277 276 276 275 273 273 272 270 268 267 266 266 265 265 266 265 264 262 259 256 254 251 248 244 241 237 232 229 228 227 226 224 224 224
289 290 290 290 289 286 284 280 277 277 276 276 276 276 274 272 270 269 268 266 265 264 263 263 262 262 261 259 256 254 252 249 247 243 238 233 230 229 228 227 224 222 222 223
290 291 291 291 290 288 286 283 280 278 277 276 276 275 274 271 269 268 268 265 263 262 261 261 261 260 257 255 254 252 249 247 245 241 235 232 230 228 225 224 222 220 220 219